This demonstration page uses our WeatherBlox Daily Observations layout. Learn more.

38.89511, -77.03637

Hourly Observations for April 24, 2015

Temp ( °F °C ) Dew Point ( °F °C ) Humidity (%) Winds ( mph kmh ) Pressure ( in mb ) Visibility ( mi km ) Precip ( " mm )
12:52 am 00:52 Mostly Clear 47 8.3 27 -2.8 46 46 NNW 10 17 29.96 1015 10 16.0934 0 0
1:52 am 01:52 Partly Cloudy 46 7.8 21 -6.1 37 37 NW 12 19 29.96 1015 10 16.0934 0 0
2:52 am 02:52 Mostly Cloudy 44 6.7 25 -3.9 47 47 NW 12 19 29.98 1015 10 16.0934 0 0
3:52 am 03:52 Mostly Clear 42 5.6 25 -3.9 51 51 N 16 26 29.99 1016 10 16.0934 0 0
4:52 am 04:52 Mostly Clear 41 5 21 -6.1 45 45 N 15 24 30 1016 10 16.0934 0 0
5:52 am 05:52 Partly Cloudy 40 4.4 17 -8.3 40 40 N 15 24 30.02 1017 10 16.0934 0 0
6:52 am 06:52 Partly Cloudy 40 4.4 19 -7.2 43 43 N 12 19 30.04 1017 10 16.0934 0 0
7:52 am 07:52 Mostly Sunny 44 6.7 18 -7.8 35 35 N 17 28 30.05 1018 10 16.0934 0 0
8:52 am 08:52 Mostly Sunny 44 6.7 17 -8.3 34 34 NNW 17 28 30.04 1017 10 16.0934 0 0
9:52 am 09:52 Mostly Sunny 47 8.3 15 -9.4 28 28 NNW 17 28 30.04 1017 10 16.0934 0 0
10:52 am 10:52 Mostly Sunny 50 10 21 -6.1 32 32 NW 15 24 30.03 1017 10 16.0934 0 0
11:52 am 11:52 Sunny 53 11.7 21 -6.1 28 28 WNW 16 26 30.01 1016 10 16.0934 0 0
12:52 pm 12:52 Mostly Sunny 56 13.3 22 -5.6 27 27 NW 16 26 29.99 1016 10 16.0934 0 0
1:52 pm 13:52 Mostly Sunny 57 13.9 21 -6.1 25 25 NW 12 19 29.97 1015 10 16.0934 0 0
2:52 pm 14:52 Partly Cloudy 60 15.6 22 -5.6 23 23 NW 16 26 29.95 1014 10 16.0934 0 0
3:52 pm 15:52 Mostly Sunny 61 16.1 20 -6.7 20 20 NW 18 30 29.93 1013 10 16.0934 0 0
4:52 pm 16:52 Mostly Sunny 62 16.7 21 -6.1 21 21 WNW 13 20 29.92 1013 10 16.0934 0 0
5:52 pm 17:52 Partly Cloudy 62 16.7 19 -7.2 19 19 NW 15 24 29.92 1013 10 16.0934 0 0
6:52 pm 18:52 Partly Cloudy 61 16.1 19 -7.2 20 20 NW 15 24 29.92 1013 10 16.0934 0 0
7:52 pm 19:52 Mostly Cloudy 59 15 20 -6.7 22 22 NW 7 11 29.93 1014 10 16.0934 0 0
8:52 pm 20:52 Mostly Cloudy 57 13.9 21 -6.1 25 25 NNW 7 11 29.93 1014 10 16.0934 0 0
9:52 pm 21:52 Mostly Cloudy 56 13.3 21 -6.1 26 26 W 3 6 29.96 1015 10 16.0934 0 0
10:52 pm 22:52 Mostly Cloudy 54 12.2 23 -5 30 30 WSW 6 9 29.96 1015 10 16.0934 0 0
11:52 pm 23:52 Mostly Cloudy 54 12.2 23 -5 30 30 NW 7 11 29.95 1014 10 16.0934 0 0

Powered by AerisWeather